• In Österreich
  • Länderverzeichnis
  • Für 7 Tage
  • Wassertemperatur
  • Satellitenkarten
  • Wetterkarte
  • News
  • Widgets
  • user-avatar
    Anmelden

    Stündliche Wetter Maun

    Heute, 20 Januar, Samstag

    Zeit Temperatur Niederschläge Wind Luftdruck Luftfeuchtigkeit
    00:00 +26°C° 0 mm 2 m/S 678 mmHg 24%
    01:00 +25°C° 0 mm 2 m/S 678 mmHg 24%
    02:00 +25°C° 0 mm 3 m/S 679 mmHg 22%
    03:00 +24°C° 0 mm 2 m/S 678 mmHg 23%
    04:00 +23°C° 0 mm 2 m/S 678 mmHg 25%
    05:00 +23°C° 0 mm 2 m/S 678 mmHg 27%
    06:00 +24°C° 0 mm 3 m/S 679 mmHg 29%
    07:00 +26°C° 0 mm 3 m/S 679 mmHg 30%
    08:00 +28°C° 0 mm 4 m/S 680 mmHg 31%
    09:00 +30°C° 0 mm 3 m/S 680 mmHg 28%
    10:00 +34°C° 0 mm 3 m/S 680 mmHg 25%
    11:00 +37°C° 0 mm 2 m/S 681 mmHg 22%
    12:00 +38°C° 0 mm 3 m/S 680 mmHg 19%
    13:00 +39°C° 0 mm 3 m/S 680 mmHg 17%
    14:00 +40°C° 0 mm 3 m/S 679 mmHg 13%
    15:00 +40°C° 0 mm 3 m/S 678 mmHg 13%
    16:00 +40°C° 0 mm 3 m/S 678 mmHg 13%
    17:00 +40°C° 0 mm 3 m/S 678 mmHg 14%
    18:00 +37°C° 0 mm 3 m/S 678 mmHg 15%
    19:00 +35°C° 0 mm 3 m/S 677 mmHg 16%
    20:00 +31°C° 0 mm 3 m/S 677 mmHg 17%
    21:00 +30°C° 0 mm 3 m/S 678 mmHg 16%
    22:00 +29°C° 0 mm 2 m/S 678 mmHg 16%
    23:00 +28°C° 0 mm 2 m/S 678 mmHg 15%

    Morgen, 21 Januar, Sonntag

    Zeit Temperatur Niederschläge Wind Luftdruck Luftfeuchtigkeit
    00:00 +27°C° 0 mm 2 m/S 678 mmHg 18%
    01:00 +26°C° 0 mm 2 m/S 678 mmHg 20%
    02:00 +25°C° 0 mm 2 m/S 678 mmHg 22%
    03:00 +25°C° 0 mm 2 m/S 678 mmHg 26%
    04:00 +24°C° 0 mm 2 m/S 678 mmHg 30%
    05:00 +24°C° 0 mm 2 m/S 678 mmHg 34%
    06:00 +25°C° 0 mm 2 m/S 679 mmHg 34%
    07:00 +27°C° 0 mm 2 m/S 680 mmHg 35%
    08:00 +29°C° 0 mm 2 m/S 680 mmHg 35%
    09:00 +31°C° 0 mm 2 m/S 681 mmHg 32%
    10:00 +35°C° 0 mm 3 m/S 681 mmHg 29%
    11:00 +37°C° 0 mm 3 m/S 682 mmHg 26%
    12:00 +38°C° 0 mm 3 m/S 681 mmHg 24%
    13:00 +38°C° 0 mm 3 m/S 680 mmHg 22%
    14:00 +39°C° 0 mm 2 m/S 680 mmHg 20%
    15:00 +38°C° 0 mm 2 m/S 679 mmHg 21%
    16:00 +38°C° 0 mm 2 m/S 679 mmHg 22%
    17:00 +37°C° 0 mm 2 m/S 678 mmHg 23%
    18:00 +36°C° 0 mm 2 m/S 678 mmHg 25%
    19:00 +34°C° 0 mm 2 m/S 678 mmHg 28%
    20:00 +32°C° 0 mm 2 m/S 678 mmHg 31%
    21:00 +31°C° 0 mm 2 m/S 678 mmHg 33%
    22:00 +30°C° 0 mm 2 m/S 678 mmHg 36%
    23:00 +29°C° 0 mm 2 m/S 678 mmHg 38%

    übermorgen, 22 Januar, Montag

    Zeit Temperatur Niederschläge Wind Luftdruck Luftfeuchtigkeit
    00:00 +28°C° 0 mm 2 m/S 678 mmHg 40%
    01:00 +27°C° 0 mm 2 m/S 678 mmHg 42%
    02:00 +26°C° 0 mm 2 m/S 678 mmHg 44%
    03:00 +26°C° 0 mm 2 m/S 678 mmHg 45%
    04:00 +26°C° 0 mm 2 m/S 678 mmHg 46%
    05:00 +26°C° 0 mm 2 m/S 678 mmHg 47%
    06:00 +27°C° 0 mm 2 m/S 679 mmHg 45%
    07:00 +28°C° 0 mm 2 m/S 680 mmHg 43%
    08:00 +29°C° 0 mm 2 m/S 680 mmHg 41%
    09:00 +31°C° 0 mm 2 m/S 681 mmHg 37%
    10:00 +35°C° 0 mm 3 m/S 681 mmHg 32%
    11:00 +37°C° 0 mm 3 m/S 681 mmHg 27%
    12:00 +37°C° 0 mm 3 m/S 680 mmHg 27%
    13:00 +37°C° 0 mm 2 m/S 680 mmHg 27%
    14:00 +37°C° 0 mm 2 m/S 679 mmHg 26%
    15:00 +37°C° 0 mm 2 m/S 679 mmHg 27%
    16:00 +36°C° 0 mm 2 m/S 678 mmHg 27%
    17:00 +36°C° 0 mm 2 m/S 678 mmHg 27%
    18:00 +34°C° 0 mm 2 m/S 678 mmHg 31%
    19:00 +32°C° 0 mm 2 m/S 678 mmHg 35%
    20:00 +30°C° 0 mm 2 m/S 678 mmHg 39%
    21:00 +29°C° 0 mm 2 m/S 678 mmHg 41%
    22:00 +28°C° 0 mm 2 m/S 679 mmHg 44%
    23:00 +28°C° 0 mm 2 m/S 679 mmHg 47%

    23 Januar, Dienstag

    Zeit Temperatur Niederschläge Wind Luftdruck Luftfeuchtigkeit
    00:00 +27°C° 0 mm 2 m/S 678 mmHg 48%
    01:00 +27°C° 0 mm 2 m/S 678 mmHg 48%
    02:00 +27°C° 0 mm 2 m/S 677 mmHg 49%
    03:00 +27°C° 0 mm 2 m/S 677 mmHg 50%
    04:00 +26°C° 0 mm 1 m/S 677 mmHg 50%
    05:00 +26°C° 0 mm 1 m/S 677 mmHg 50%
    06:00 +28°C° 0 mm 1 m/S 678 mmHg 47%
    07:00 +29°C° 0 mm 2 m/S 679 mmHg 44%
    08:00 +30°C° 0 mm 2 m/S 680 mmHg 40%
    09:00 +34°C° 0 mm 2 m/S 680 mmHg 35%
    10:00 +35°C° 0 mm 1 m/S 680 mmHg 30%
    11:00 +39°C° 0 mm 1 m/S 680 mmHg 25%
    12:00 +38°C° 0 mm 2 m/S 680 mmHg 26%
    13:00 +37°C° 0 mm 2 m/S 679 mmHg 27%
    14:00 +37°C° 0 mm 2 m/S 678 mmHg 28%
    15:00 +36°C° 0,1 mm 2 m/S 678 mmHg 29%
    16:00 +36°C° 0,1 mm 2 m/S 678 mmHg 30%
    17:00 +36°C° 0,1 mm 2 m/S 677 mmHg 30%
    18:00 +34°C° 0,3 mm 2 m/S 677 mmHg 37%
    19:00 +30°C° 0,3 mm 1 m/S 677 mmHg 44%
    20:00 +28°C° 0,3 mm 1 m/S 677 mmHg 51%
    21:00 +27°C° 0,1 mm 1 m/S 677 mmHg 54%
    22:00 +27°C° 0,1 mm 1 m/S 678 mmHg 57%
    23:00 +26°C° 0,1 mm 1 m/S 678 mmHg 60%

    24 Januar, Mittwoch

    Zeit Temperatur Niederschläge Wind Luftdruck Luftfeuchtigkeit
    00:00 +25°C° 0,3 mm 1 m/S 677 mmHg 63%
    01:00 +24°C° 0,3 mm 1 m/S 677 mmHg 67%
    02:00 +24°C° 0,3 mm 1 m/S 677 mmHg 70%
    03:00 +23°C° 0,2 mm 1 m/S 677 mmHg 72%
    04:00 +23°C° 0,2 mm 1 m/S 677 mmHg 75%
    05:00 +23°C° 0,2 mm 1 m/S 677 mmHg 77%
    06:00 +24°C° 0 mm 2 m/S 678 mmHg 73%
    07:00 +25°C° 0 mm 2 m/S 679 mmHg 68%
    08:00 +27°C° 0 mm 3 m/S 679 mmHg 64%
    09:00 +30°C° 0 mm 3 m/S 680 mmHg 52%
    10:00 +34°C° 0 mm 3 m/S 680 mmHg 40%
    11:00 +37°C° 0 mm 3 m/S 681 mmHg 28%
    12:00 +36°C° 0,1 mm 3 m/S 680 mmHg 29%
    13:00 +36°C° 0,1 mm 3 m/S 679 mmHg 30%
    14:00 +35°C° 0,1 mm 3 m/S 678 mmHg 31%
    15:00 +34°C° 0,4 mm 3 m/S 678 mmHg 34%
    16:00 +34°C° 0,4 mm 3 m/S 678 mmHg 36%
    17:00 +33°C° 0,4 mm 3 m/S 678 mmHg 39%
    18:00 +30°C° 0,9 mm 3 m/S 678 mmHg 47%
    19:00 +28°C° 0,9 mm 4 m/S 678 mmHg 55%
    20:00 +26°C° 0,9 mm 4 m/S 678 mmHg 63%
    21:00 +26°C° 0,4 mm 4 m/S 678 mmHg 64%
    22:00 +26°C° 0,4 mm 3 m/S 678 mmHg 65%
    23:00 +25°C° 0,4 mm 3 m/S 678 mmHg 66%

    25 Januar, Donnerstag

    Zeit Temperatur Niederschläge Wind Luftdruck Luftfeuchtigkeit
    00:00 +25°C° 0 mm 2 m/S 678 mmHg 65%
    01:00 +25°C° 0 mm 1 m/S 678 mmHg 64%
    02:00 +25°C° 0 mm 1 m/S 678 mmHg 62%
    03:00 +25°C° 0,3 mm 1 m/S 678 mmHg 65%
    04:00 +24°C° 0,3 mm 2 m/S 677 mmHg 68%
    05:00 +24°C° 0,3 mm 2 m/S 677 mmHg 71%
    06:00 +25°C° 0,1 mm 2 m/S 678 mmHg 67%
    07:00 +26°C° 0,1 mm 2 m/S 679 mmHg 64%
    08:00 +27°C° 0,1 mm 2 m/S 679 mmHg 60%
    09:00 +30°C° 0 mm 2 m/S 680 mmHg 51%
    10:00 +32°C° 0 mm 2 m/S 680 mmHg 41%
    11:00 +36°C° 0 mm 2 m/S 681 mmHg 32%
    12:00 +36°C° 0 mm 2 m/S 680 mmHg 32%
    13:00 +35°C° 0 mm 2 m/S 679 mmHg 32%
    14:00 +35°C° 0 mm 2 m/S 678 mmHg 33%
    15:00 +36°C° 0 mm 2 m/S 678 mmHg 31%
    16:00 +36°C° 0 mm 2 m/S 678 mmHg 30%
    17:00 +37°C° 0 mm 2 m/S 678 mmHg 29%
    18:00 +35°C° 0 mm 2 m/S 678 mmHg 33%
    19:00 +32°C° 0 mm 2 m/S 678 mmHg 38%
    20:00 +30°C° 0 mm 2 m/S 678 mmHg 43%
    21:00 +29°C° 0,2 mm 2 m/S 678 mmHg 49%
    22:00 +27°C° 0,2 mm 2 m/S 678 mmHg 55%
    23:00 +26°C° 0,2 mm 2 m/S 678 mmHg 60%
    Mehr zeigen